STARLINK-1075 (44958 NORAD) Tracking and Keplerian Element Data

This shows tracking and keplerian element data for the satellite.

Feedback or suggestion? Click here.




ElementValue
Catalog44958
NameSTARLINK-1075
Epoch Orbit175
Epoch Day188.91667824
Epoch Year2020
RAAN247.1708
Inclination52.9975
Eccentricity0.0001397
Argument of Perigee109.031
Mean Anonmoly48.8951
Mean Motion15.0560812
Decay Rate-0.00011553
L11 44958U 20001AW 20188.91667824 -.00011553 00000-0 -77442-3 0 9999
L22 44958 52.9975 247.1708 0001397 109.0310 48.8951 15.05608120 1758

Live tracking and technical data element details for STARLINK-1075 (NORAD 44958). STARLINK-1075 can be tracked NOW for your location showing map with azimuth and elevation plus other details from your city location.

Track the satellite on the map from your city or location and see movement details for azimuth, elevation, latitude, longitude, range, height, and movement on the map or in text.







IsCatalogInMostPopularTable: catalog: 44958, numindb: 34
Update: records affected: 1



GetName: 44958 STARLINK-1075

Hit Count: updated at: Wed, 08 Jul 2020 05:14:39 GMT